IU5NOC-10 Weather Reports


time (UTC)temp
C
wind
direction
speed
KPH
gust
KPH
rain 1hr
cm
rain 24hr
cm
rain mn
cm
humidity
%
barometer
mb
20260508004649 10 17 0.0 0.0 0.00 0.03 0.00 8 988.2
20260508003148 10 12 0.0 0.0 0.00 0.03 0.00 8 988.5
20260508001648 10 356 0.0 0.0 0.00 0.03 0.00 8 988.6
20260508000148 10 354 0.0 0.0 0.00 0.03 0.00 8 988.9
20260507234649 10 342 0.0 1.6 0.00 0.03 0.00 8 989.2
20260507233149 10 9 0.0 1.6 0.00 0.03 0.00 8 989.3
20260507231648 10 18 0.0 0.0 0.00 0.03 0.00 8 989.2
20260507230148 11 22 0.0 1.6 0.00 0.03 0.00 8 989.3
20260507224648 11 269 3.2 4.8 0.00 0.03 0.00 8 989.4
20260507223149 11 272 3.2 4.8 0.00 0.03 0.00 8 989.2
20260507221701 11 271 3.2 4.8 0.00 0.03 0.00 8 989.5
20260507221648 11 214 3.2 4.8 0.00 0.03 0.00 8 989.5
20260507220201 12 36 0.0 1.6 0.00 0.03 0.00 8 989.2
20260507220148 12 38 0.0 1.6 0.00 0.03 0.00 8 989.2
20260507214648 12 224 3.2 8.0 0.00 0.03 0.03 8 989.2
20260507213148 12 271 1.6 3.2 0.00 0.03 0.03 7 989.0
20260507211649 13 307 1.6 3.2 0.00 0.03 0.03 7 989.0
20260507210148 12 1 0.0 1.6 0.00 0.03 0.03 7 989.2
20260507204648 13 2 0.0 0.0 0.00 0.03 0.03 7 989.4
20260507203148 13 196 4.8 8.0 0.00 0.03 0.03 7 989.2
20260507201701 13 182 4.8 6.4 0.00 0.03 0.03 7 989.2
20260507201649 13 194 3.2 6.4 0.00 0.03 0.03 7 989.2
20260507200201 13 163 4.8 6.4 0.00 0.03 0.03 7 989.0
20260507200149 13 160 3.2 6.4 0.00 0.03 0.03 7 989.0
20260507194701 14 179 3.2 8.0 0.00 0.08 0.03 7 989.5
20260507194648 14 175 4.8 8.0 0.00 0.08 0.03 7 989.5
20260507193148 14 9 0.0 0.0 0.00 0.08 0.03 6 989.2
20260507191648 15 348 0.0 1.6 0.00 0.08 0.03 6 989.0
20260507190202 15 355 0.0 3.2 0.00 0.08 0.03 6 989.0
20260507190149 16 334 1.6 3.2 0.00 0.08 0.03 6 989.0
20260507184701 16 345 0.0 3.2 0.00 0.43 0.03 6 988.8
20260507184649 16 353 0.0 3.2 0.00 0.43 0.03 6 988.8
20260507183202 16 44 0.0 0.0 0.00 0.43 0.03 5 988.8
20260507183148 16 34 0.0 0.0 0.00 0.43 0.03 5 988.8
20260507181648 17 8 0.0 0.0 0.00 0.43 0.03 6 988.7
20260507180201 18 20 0.0 1.6 0.00 0.43 0.03 5 988.6
20260507180148 18 19 0.0 1.6 0.00 0.43 0.03 5 988.6
20260507174649 19 15 0.0 1.6 0.00 0.99 0.03 5 988.3
20260507173149 20 8 3.2 8.0 0.00 0.99 0.03 4 988.3
20260507171648 21 42 0.0 4.8 0.00 0.99 0.03 4 988.2
20260507170148 21 16 0.0 4.8 0.00 0.99 0.03 4 988.1
20260507164648 22 333 0.0 4.8 0.00 1.37 0.03 4 988.3
20260507163202 22 3 0.0 4.8 0.00 1.37 0.03 4 988.2
20260507163149 22 7 0.0 4.8 0.00 1.37 0.03 4 988.2
20260507161702 21 28 3.2 8.0 0.00 1.37 0.03 4 988.3
20260507161648 21 22 4.8 8.0 0.00 1.37 0.03 4 988.3
20260507160201 22 15 0.0 4.8 0.00 1.37 0.03 4 988.2
20260507160148 22 8 1.6 6.4 0.00 1.37 0.03 4 988.2
20260507154701 23 1 1.6 3.2 0.00 1.37 0.03 4 988.2
20260507154648 23 3 0.0 3.2 0.00 1.37 0.03 4 988.2
20260507153202 22 321 0.0 3.2 0.00 1.37 0.03 4 988.0
20260507153148 22 339 0.0 4.8 0.00 1.37 0.03 4 988.0
20260507151701 22 235 3.2 4.8 0.00 1.37 0.03 4 988.3
20260507151649 22 316 1.6 4.8 0.00 1.37 0.03 4 988.3
20260507150202 22 292 4.8 6.4 0.00 1.37 0.03 4 988.2
20260507150148 22 280 3.2 6.4 0.00 1.37 0.03 4 988.2
20260507144702 23 17 0.0 3.2 0.00 1.42 0.03 4 988.5
20260507144648 23 10 0.0 3.2 0.00 1.42 0.03 4 988.5
20260507143201 24 259 4.8 9.7 0.00 1.42 0.03 4 988.5
20260507143148 24 277 3.2 9.7 0.00 1.42 0.03 4 988.5
20260507141649 21 237 4.8 4.8 0.00 1.42 0.03 4 988.5
20260507140149 22 257 3.2 3.2 0.00 1.42 0.03 4 988.7
20260507134648 23 342 3.2 9.7 0.00 1.42 0.03 4 988.7
20260507133148 23 12 0.0 8.0 0.00 1.42 0.03 4 989.0
20260507131648 22 67 1.6 12.9 0.00 1.42 0.03 4 989.3
20260507130149 21 148 1.6 8.0 0.00 1.42 0.03 4 989.3
20260507124649 24 311 3.2 8.0 0.00 1.57 0.03 4 989.4
20260507123201 21 5 0.0 4.8 0.00 1.57 0.03 4 989.6
20260507123148 22 354 0.0 4.8 0.00 1.57 0.03 4 989.6
20260507121701 21 7 4.8 6.4 0.00 1.57 0.03 4 989.5
20260507121648 21 319 3.2 6.4 0.00 1.57 0.03 5 989.5
20260507120201 22 17 0.0 4.8 0.00 1.57 0.03 4 989.7
20260507120148 22 14 0.0 4.8 0.00 1.57 0.03 4 989.7
20260507114702 22 15 3.2 6.4 0.00 1.57 0.03 4 989.6
20260507114649 23 358 3.2 12.9 0.00 1.57 0.03 4 989.6
20260507113201 21 355 1.6 8.0 0.00 1.57 0.03 4 989.9
20260507113148 21 4 1.6 8.0 0.00 1.57 0.03 5 989.9
20260507111703 23 343 3.2 6.4 0.00 1.57 0.03 4 990.0
20260507111648 22 358 1.6 6.4 0.00 1.57 0.03 4 990.0
20260507110201 22 6 1.6 6.4 0.00 1.57 0.03 4 990.1
20260507110148 22 264 3.2 8.0 0.00 1.57 0.03 4 990.1
20260507104648 20 16 4.8 9.7 0.00 1.57 0.03 5 990.1
20260507103201 20 359 1.6 4.8 0.00 1.57 0.03 5 990.4
20260507103149 20 327 1.6 3.2 0.00 1.57 0.03 5 990.4
20260507101701 20 10 0.0 3.2 0.00 1.57 0.03 5 990.3
20260507101649 20 20 0.0 3.2 0.00 1.57 0.03 5 990.3
20260507100201 20 64 1.6 6.4 0.00 1.57 0.03 6 990.5
20260507100148 20 357 4.8 6.4 0.00 1.57 0.03 6 990.5
20260507094701 20 328 3.2 6.4 0.00 1.57 0.03 5 990.4
20260507094648 20 256 3.2 6.4 0.00 1.57 0.03 5 990.4
20260507093201 21 26 3.2 6.4 0.00 1.57 0.03 5 990.4
20260507093148 21 39 1.6 4.8 0.00 1.57 0.03 5 990.4
20260507091701 19 351 1.6 4.8 0.00 1.57 0.03 5 990.2
20260507091649 19 326 1.6 4.8 0.00 1.57 0.03 5 990.2
20260507090201 21 40 0.0 3.2 0.00 1.57 0.03 6 990.4
20260507090148 21 36 0.0 1.6 0.00 1.57 0.03 5 990.4
20260507084701 20 6 1.6 3.2 0.00 1.57 0.03 6 990.3
20260507084648 20 324 1.6 4.8 0.00 1.57 0.03 6 990.3
20260507083148 21 292 6.4 9.7 0.00 1.57 0.03 5 990.4
20260507081649 17 29 0.0 4.8 0.00 1.57 0.03 6 990.4
20260507080149 18 15 0.0 1.6 0.00 1.57 0.03 7 990.1
20260507074648 16 52 0.0 3.2 0.00 1.57 0.03 7 990.2
20260507073148 15 22 0.0 4.8 0.00 1.57 0.03 7 989.9
20260507071648 15 15 0.0 3.2 0.00 1.57 0.03 8 989.9
20260507070202 16 71 0.0 0.0 0.00 1.57 0.03 7 989.5
20260507070149 16 44 0.0 1.6 0.00 1.57 0.03 7 989.5
20260507064701 15 26 0.0 1.6 0.00 1.57 0.03 8 989.6
20260507064649 15 26 0.0 1.6 0.00 1.57 0.03 7 989.6
20260507063201 18 30 0.0 0.0 0.00 1.57 0.03 6 989.9
20260507063148 18 16 0.0 0.0 0.00 1.57 0.03 7 989.9
20260507061702 18 22 0.0 0.0 0.00 1.57 0.03 6 989.8
20260507061648 18 21 0.0 0.0 0.00 1.57 0.03 6 989.8
20260507060201 16 33 0.0 0.0 0.00 1.57 0.03 7 989.7
20260507060148 16 32 0.0 0.0 0.00 1.57 0.03 7 989.7
20260507054701 16 16 0.0 0.0 0.00 1.60 0.03 7 989.6
20260507054649 16 16 0.0 0.0 0.00 1.60 0.03 7 989.6
20260507053148 11 17 0.0 0.0 0.00 1.60 0.03 8 989.3
20260507051701 11 53 0.0 1.6 0.00 1.60 0.03 9 989.2
20260507051648 11 61 0.0 0.0 0.00 1.60 0.03 9 989.2
20260507050148 11 22 0.0 0.0 0.00 1.60 0.03 9 989.4
20260507044701 9 5 1.6 1.6 0.00 1.60 0.03 9 989.3
20260507044648 9 348 1.6 1.6 0.00 1.60 0.03 9 989.3
20260507043149 8 18 0.0 0.0 0.00 1.60 0.03 9 989.2
20260507041648 8 24 0.0 0.0 0.00 1.60 0.03 9 988.6
20260507040148 8 15 0.0 0.0 0.00 1.60 0.03 9 988.7
20260507034648 8 260 4.8 6.4 0.03 1.63 0.03 9 988.6
20260507033149 8 328 1.6 3.2 0.03 1.63 0.03 9 988.6
20260507031649 9 233 3.2 4.8 0.03 1.63 0.03 9 988.5
20260507030203 10 310 1.6 3.2 0.03 1.63 0.03 9 988.9
20260507030148 10 314 1.6 3.2 0.03 1.63 0.03 9 988.9
20260507024701 10 11 0.0 1.6 0.00 1.60 0.00 9 988.7
20260507024648 10 4 0.0 3.2 0.00 1.60 0.00 9 988.7
20260507023148 10 6 0.0 0.0 0.00 1.60 0.00 9 988.7
20260507021702 10 14 0.0 0.0 0.00 1.60 0.00 9 988.7
20260507021649 10 14 0.0 1.6 0.00 1.60 0.00 9 988.7
20260507020202 10 358 0.0 1.6 0.00 1.60 0.00 9 988.6
20260507020149 10 316 0.0 1.6 0.00 1.60 0.00 9 988.6
20260507014702 10 28 0.0 1.6 0.00 1.60 0.00 9 988.5
20260507014648 10 33 0.0 1.6 0.00 1.60 0.00 9 988.5
20260507013148 10 26 0.0 0.0 0.00 1.60 0.00 9 988.3
20260507011701 11 8 1.6 1.6 0.00 1.60 0.00 9 988.3
20260507011648 11 355 1.6 1.6 0.00 1.60 0.00 9 988.3
20260507010202 11 203 1.6 4.8 0.00 1.60 0.00 9 988.5
20260507010149 11 77 1.6 4.8 0.00 1.60 0.00 9 988.5